User: anonymous   Login
Location: Csohesd
(46.2500°N, 22.6167°E)
Time: 12:00:04
(UTC+00:00)
Language:

Cosmos 1455 Rocket - Orbit

View from above orbital plane
View from above orbital plane
View from above satellite
View from above satellite

Ground track
Ground track

The orbit data is extracted from the following two-line orbital elements,

1 14033U 83037B   22025.89919890  .00000187  00000-0  19571-4 0  9999
2 14033  82.5060 206.1976 0016854 325.3211  34.6904 14.83900016708188
Epoch (UTC): 25 January 2022 21:34:50
Eccentricity: 0.0016854
inclination: 82.5060°
perigee height: 605 km
apogee height: 629 km
right ascension of ascending node: 206.1976°
argument of perigee: 325.3211°
revolutions per day: 14.83900016
mean anomaly at epoch: 34.6904°
orbit number at epoch: 70818

The dashed part of the orbit path shows where the satellite is in the earth's shadow,  

DLR